User: anonymous   Login
Location: Unspecified
(0.0000°N, 0.0000°E)
Time: 03:30:24
(UTC+02:00)
Language:

H-2A R/B - Orbit

View from above orbital plane
View from above orbital plane
View from above satellite
View from above satellite

Ground track
Ground track

The orbit data is extracted from the following two-line orbital elements,

1 28932U 06002B   16236.24272255  .00000440  00000-0  47748-4 0  9991
2 28932  98.2081 141.2136 0089949 206.8055 305.8532 14.90989018573401
Epoch (UTC): 23 August 2016 05:49:31
Eccentricity: 0.0089949
inclination: 98.2081°
perigee height: 532 km
apogee height: 657 km
right ascension of ascending node: 141.2136°
argument of perigee: 206.8055°
revolutions per day: 14.90989018
mean anomaly at epoch: 305.8532°
orbit number at epoch: 57340

The dashed part of the orbit path shows where the satellite is in the earth's shadow,  

DLR